[[{"header":{"parameterUnit":"m.s-1","parameterCategory":1,"la1":30.2991,"la2":30.254,"lo1":-89.0895,"lo2":-89.0444,"dy":0.0017,"dx":0.0017,"nx":28,"ny":28,"refTime":"2023-08-26T03:00:00:Z","depth":0,"parameterNumber":2,"parameterNumberName":"U-component_of_WINDS"},"data":[0,0,0,0,0,0,0,0,0,0,0,0,0,0,0,0,0,0,0,0,0,0,0,0,0,0,0,0,0,0,0,0,0,0,0,0,0,0,0,0,0,0,0,0,0,0,0,0,0,0,0,0,0,0,0,0,0,0,2.9661,2.9663,0,2.9919,2.9922,2.9925,2.9987,2.9985,2.9983,2.9982,3.0225,3.0233,3.024,0,0,0,0,0,0,0,0,0,0,0,0,0,2.9193,2.9202,2.966,2.9664,2.9667,2.9919,2.9922,2.9926,2.9987,2.9985,2.9983,2.9981,3.0222,3.0232,3.0241,0,0,0,0,0,0,0,0,0,0,0,0,0,2.9418,2.9204,2.966,2.9728,2.9737,2.9918,2.9922,2.9927,2.9987,2.9985,2.9982,2.998,3.0219,3.0231,3.0243,3.0367,0,0,3.0279,3.0285,0,0,0,0,0,0,0,0,2.9405,2.9435,2.9715,2.9724,2.9734,2.9919,2.9847,3.0074,2.9988,2.9892,2.9982,2.9979,3.0123,3.0143,3.0197,3.0378,3.0389,3.028,3.0288,3.0293,3.0296,0,0,0,0,0,0,0,2.9389,2.9424,2.9762,2.9719,2.973,2.9737,2.9767,2.989,3.0017,2.99,2.9905,2.9936,3.0128,3.0185,3.0203,3.0392,3.028,3.0291,3.0298,3.0303,3.0681,3.0684,0,0,0,0,0,0,2.9365,2.9411,2.9754,2.977,2.9561,2.9748,2.9781,2.9861,3.0017,3.0038,2.9938,2.9938,3.0165,3.0188,3.0211,3.0364,3.0293,3.0304,3.0311,3.0678,3.0682,3.0685,0,0,0,0,0,0,2.9355,2.9396,2.9743,2.9592,2.9637,2.9759,2.9849,2.9868,2.9925,3.0046,3.0066,2.9974,3.0164,3.0194,3.0328,3.0373,3.0309,3.032,3.0675,3.0679,3.0683,3.0671,0,0,0,0,0,0,2.9342,2.9392,2.9447,2.9593,2.9645,2.9863,2.9852,2.9875,2.9948,2.9951,3.0085,3.0105,3.0165,3.031,3.034,3.0388,3.033,3.0671,3.0677,3.0682,3.0668,3.0674,3.068,0,0,0,0,0,2.9325,2.9429,2.9449,2.949,2.9718,2.9866,2.9895,2.9968,2.9952,3.0004,3.008,3.0101,3.0363,3.0323,3.0357,3.041,3.0669,3.0675,3.0682,3.0665,3.0673,3.068,0,0,0,0,0,0,2.9278,2.945,2.9474,2.9631,2.9734,2.9876,2.9945,2.9975,3.0079,3.0076,3.0155,3.0184,3.0311,3.0374,3.0326,3.0535,3.0515,3.0528,3.049,3.0499,3.0505,3.0486,3.034,0,0,0,0,0,2.9288,2.9402,2.9543,2.9667,2.9718,2.9822,2.9889,2.9937,3.0044,3.0086,3.0172,3.0269,3.0372,3.0439,3.0542,3.0677,3.0703,3.0729,3.0735,3.0739,3.0749,3.0819,3.0831,3.0706,3.0706,3.0706,0,0,2.9306,2.9414,2.948,2.966,2.9746,2.9854,2.9858,2.9974,3.0052,3.0101,3.0234,3.0299,3.0411,3.0545,3.0608,3.0601,3.0789,3.0747,3.075,3.0758,3.0827,3.0838,3.0849,3.071,3.0709,3.0709,0,0,2.9394,2.949,2.9603,2.9689,2.982,2.9888,2.9914,3.0052,3.0099,3.0235,3.0272,3.0361,3.0541,3.0618,3.068,3.0792,3.0812,3.0822,3.0852,3.0919,3.0929,3.0938,3.0973,3.0985,3.0832,3.0832,3.0832,0,2.9398,2.9572,2.9654,2.9769,2.9843,2.9898,3.0006,3.0083,3.0238,3.0284,3.0275,3.0498,3.0577,3.0727,3.0754,3.0804,3.083,3.0807,3.0922,3.0932,3.0941,3.0975,3.0989,3.0832,3.0832,3.0832,3.0832,0,2.9567,2.9685,2.9758,2.9914,2.9996,3.0106,3.0197,3.0268,3.0307,3.0372,3.0504,3.0601,3.0722,3.0761,3.0798,3.0914,3.0905,3.0908,3.0889,3.0952,3.0985,3.0999,3.0832,3.0832,3.0832,3.0832,0,0,2.9636,2.9834,2.9859,2.9928,3.0075,3.0163,3.0271,3.0396,3.0453,3.0555,3.0643,3.0791,3.0794,3.0865,3.0909,3.0968,3.1044,3.0964,3.0967,3.0972,3.117,3.1166,3.118,3.1058,3.1061,3.1064,3.116,0,2.974,2.9946,3.002,3.0185,3.029,3.0341,3.0434,3.0528,3.0591,3.0682,3.0748,3.0851,3.085,3.0892,3.0953,3.1022,3.1084,3.1016,3.1133,3.1137,3.1103,3.1199,3.1195,3.1282,3.1174,3.1176,3.1178,0,2.989,3.0001,3.0178,3.0308,3.0354,3.0438,3.0555,3.0645,3.0749,3.0789,3.0867,3.0907,3.1012,3.0987,3.1129,3.1081,3.1132,3.1172,3.1177,3.1189,3.116,3.1209,3.1312,3.1323,3.12,3.1198,3.1196,0,2.9918,3.011,3.024,3.0297,3.0453,3.0509,3.0574,3.0678,3.0746,3.0844,3.0888,3.0995,3.1052,3.113,3.1194,3.1171,3.1328,3.131,3.1358,3.1356,3.1388,3.1385,3.1497,3.1425,3.1425,3.1425,3.1424,0,3.0025,3.013,3.0255,3.0334,3.045,3.053,3.0639,3.0707,3.0797,3.0883,3.093,3.1009,3.1091,3.1176,3.1226,3.1333,3.1359,3.1388,3.14,3.1384,3.1379,3.1417,3.1412,3.1428,3.1427,3.1427,3.1426,0,3.0077,3.0165,3.0309,3.0445,3.048,3.0559,3.0671,3.0744,3.0808,3.0916,3.0945,3.1042,3.1146,3.1218,3.135,3.1382,3.1496,3.1508,3.1463,3.1468,3.1512,3.1505,3.165,3.167,3.1587,3.1587,3.1588,0,3.0139,3.0222,3.0366,3.0432,3.0499,3.0602,3.0673,3.0751,3.0821,3.0944,3.1,3.1108,3.1199,3.136,3.1437,3.1535,3.1548,3.1592,3.1563,3.1542,3.1544,3.1538,3.1544,3.1595,3.1596,3.1597,3.1597,0,3.0238,3.0277,3.0382,3.05,3.0584,3.0679,3.0774,3.0821,3.0914,3.0989,3.1099,3.1169,3.1305,3.1408,3.1514,3.1571,3.1597,3.1606,3.1621,3.1604,3.1574,3.1587,3.1472,3.1602,3.1601,3.1601,3.1601,3.16,3.0295,3.0369,3.0482,3.0594,3.0675,3.0761,3.0837,3.091,3.1006,3.1127,3.1165,3.1276,3.137,3.1516,3.1575,3.1658,3.1654,3.1678,3.1683,3.1687,3.1685,3.1562,3.1677,3.1677,3.1677,3.1677,3.1677,0,3.0393,3.0469,3.0572,3.0705,3.0791,3.0815,3.0918,3.0986,3.1087,3.1176,3.1265,3.1387,3.1486,3.1571,3.1671,3.1721,3.1734,3.1744,3.174,3.1751,3.1684,3.166,3.1731,3.1731,3.1731,3.1731,3.1731,3.1731,3.0455,3.0581,3.0632,3.0793,3.0865,3.0981,3.1038,3.1114,3.1186,3.1322,3.1408,3.1464,3.1548,3.1655,3.1744,3.1766,3.1798,3.1805,3.1828,3.1763,3.1757,3.1751,3.1728,3.1812,3.1812,3.1888,3.1889,3.1889]},{"header":{"parameterUnit":"m.s-1","parameterCategory":1,"la1":30.2991,"la2":30.254,"lo1":-89.0895,"lo2":-89.0444,"dy":0.0017,"dx":0.0017,"nx":28,"ny":28,"refTime":"2023-08-26T03:00:00:Z","depth":0,"parameterNumber":3,"parameterNumberName":"V-component_of_WINDS"},"data":[0,0,0,0,0,0,0,0,0,0,0,0,0,0,0,0,0,0,0,0,0,0,0,0,0,0,0,0,0,0,0,0,0,0,0,0,0,0,0,0,0,0,0,0,0,0,0,0,0,0,0,0,0,0,0,0,0,0,2.0045,2.0045,0,2.0028,2.0028,2.0028,2.0147,2.0151,2.0154,2.0157,2.0129,2.0125,2.0122,0,0,0,0,0,0,0,0,0,0,0,0,0,2.018,2.0177,2.0045,2.0045,2.0045,2.0028,2.0028,2.0028,2.0147,2.0151,2.0155,2.0159,2.0131,2.0126,2.0121,0,0,0,0,0,0,0,0,0,0,0,0,0,2.0137,2.0176,2.0045,2.0103,2.0108,2.0028,2.0028,2.0028,2.0146,2.0151,2.0156,2.0161,2.0132,2.0126,2.0121,1.9982,0,0,2.0103,2.01,0,0,0,0,0,0,0,0,2.014,2.0132,2.0094,2.0099,2.0104,2.0096,2.0065,2.0012,2.0145,2.0131,2.0157,2.0163,2.0113,2.0109,2.0094,1.9981,1.998,2.0102,2.0099,2.0096,2.0094,0,0,0,0,0,0,0,2.0142,2.0134,2.0038,2.0094,2.01,2.0129,2.0128,2.0056,2.0093,2.0132,2.0141,2.0138,2.0117,2.01,2.0095,1.9979,2.0102,2.0097,2.0093,2.0091,1.9762,1.9757,0,0,0,0,0,0,2.0138,2.0135,2.0039,2.0038,2.0135,2.0122,2.0122,2.0093,2.0094,2.01,2.0134,2.0144,2.0107,2.0101,2.0094,1.9936,2.0096,2.0091,2.0087,1.9767,1.9761,1.9755,0,0,0,0,0,0,2.0141,2.0129,2.004,2.0089,2.008,2.0115,2.0081,2.009,2.0073,2.0096,2.0102,2.0109,2.0111,2.0102,2.0012,1.9937,2.0088,2.0083,1.9774,1.9765,1.9758,1.9616,0,0,0,0,0,0,2.0144,2.0129,2.0075,2.0087,2.0077,1.9956,2.0076,2.0086,2.0064,2.0076,2.0075,2.0079,2.0114,2.002,2.0006,1.9931,2.0078,1.978,1.977,1.9761,1.9628,1.9605,1.9585,0,0,0,0,0,2.0149,2.0032,2.0072,2.006,2.0012,1.9952,1.9946,1.9992,2.0057,2.0004,2.0022,2.0079,1.995,2.001,1.9995,1.9917,1.9785,1.9773,1.9761,1.9637,1.9609,1.9585,0,0,0,0,0,0,2.0002,2.0034,2.0078,1.9962,1.9955,1.9972,1.9905,1.9959,1.9929,1.9941,1.9999,1.9997,1.9898,1.99,1.9967,1.9789,1.9879,1.9863,1.9789,1.9763,1.9742,1.974,2.0073,0,0,0,0,0,1.9958,1.9909,1.9939,1.9834,1.9829,1.9869,1.9844,1.9882,1.9874,1.987,1.988,1.9868,1.9827,1.9796,1.9758,1.9633,1.9636,1.9573,1.9552,1.9534,1.9518,1.9459,1.9432,1.9717,1.9717,1.9717,0,0,1.9862,1.9874,1.9838,1.9805,1.9803,1.9751,1.9864,1.9801,1.9763,1.9859,1.9775,1.9784,1.9776,1.967,1.9623,1.9668,1.9443,1.9519,1.9505,1.9498,1.9444,1.9417,1.9393,1.9709,1.971,1.9712,0,0,1.9661,1.9665,1.9581,1.9581,1.958,1.961,1.9591,1.9604,1.9615,1.9534,1.9608,1.9565,1.9489,1.9483,1.9469,1.9284,1.9337,1.927,1.9154,1.9096,1.9074,1.9054,1.8989,1.8965,1.9256,1.9255,1.9255,0,1.9539,1.9466,1.9529,1.9466,1.9451,1.9546,1.9462,1.9457,1.9442,1.943,1.9483,1.9398,1.9399,1.9295,1.9252,1.9238,1.9218,1.9265,1.9073,1.9054,1.9036,1.8974,1.895,1.9247,1.9248,1.9249,1.925,0,1.9319,1.9268,1.92,1.9191,1.917,1.9096,1.9149,1.9121,1.9166,1.9191,1.9112,1.912,1.9088,1.9068,1.9107,1.8973,1.9002,1.9063,1.9153,1.9,1.8943,1.892,1.9235,1.9238,1.9241,1.9243,0,0,1.9009,1.9049,1.9022,1.9024,1.9038,1.8999,1.8934,1.891,1.8885,1.8876,1.8823,1.8765,1.8826,1.8812,1.8853,1.8803,1.866,1.8872,1.8873,1.8831,1.8516,1.8466,1.8438,1.87,1.8696,1.8693,1.8517,0,1.8813,1.8703,1.8765,1.8647,1.8603,1.8701,1.8646,1.8649,1.8675,1.8642,1.8671,1.8629,1.8713,1.8706,1.8661,1.8686,1.8596,1.8701,1.865,1.8647,1.8643,1.8408,1.8352,1.8185,1.8495,1.8491,1.8489,0,1.8563,1.8553,1.8432,1.8466,1.8449,1.8397,1.8385,1.8354,1.8363,1.8387,1.8378,1.8437,1.8378,1.8475,1.8396,1.8466,1.8452,1.8463,1.8458,1.8449,1.8553,1.839,1.8133,1.8106,1.8454,1.8457,1.8459,0,1.8349,1.8305,1.8229,1.8228,1.8264,1.8226,1.8239,1.8255,1.824,1.8231,1.8223,1.8206,1.8194,1.8181,1.8235,1.8301,1.8151,1.8251,1.8168,1.8166,1.8124,1.8124,1.7857,1.8122,1.8123,1.8123,1.8124,0,1.8119,1.804,1.8135,1.8086,1.8005,1.8082,1.7998,1.8022,1.8039,1.7999,1.8084,1.8044,1.8121,1.8091,1.8134,1.8065,1.8059,1.8077,1.8088,1.8066,1.8063,1.8051,1.8063,1.8117,1.8118,1.8119,1.812,0,1.7859,1.792,1.7844,1.7891,1.7901,1.7839,1.7879,1.7838,1.7878,1.7827,1.7819,1.7878,1.7849,1.7906,1.788,1.7911,1.7814,1.7845,1.781,1.7817,1.7732,1.7738,1.7442,1.7409,1.7698,1.7696,1.7693,0,1.7704,1.7648,1.7694,1.7676,1.7687,1.7656,1.7645,1.7723,1.7707,1.7723,1.7681,1.7661,1.7647,1.7597,1.7637,1.7622,1.7652,1.7551,1.7649,1.7632,1.7649,1.765,1.7647,1.7526,1.7523,1.752,1.7518,0,1.7424,1.7461,1.7443,1.7439,1.7426,1.7424,1.7429,1.741,1.7494,1.7473,1.7448,1.7439,1.7422,1.74,1.7398,1.7413,1.7479,1.7489,1.7469,1.7442,1.7424,1.7433,1.775,1.7492,1.7495,1.7497,1.7498,1.7499,1.7211,1.7169,1.7198,1.7178,1.7193,1.7199,1.7166,1.7207,1.7188,1.7181,1.7231,1.7196,1.7219,1.7224,1.7234,1.721,1.7255,1.7225,1.7217,1.7208,1.7194,1.7435,1.721,1.721,1.7211,1.7212,1.7213,0,1.6934,1.6962,1.6944,1.6953,1.694,1.7014,1.7028,1.701,1.698,1.6998,1.6988,1.6963,1.6948,1.6994,1.6987,1.6959,1.699,1.6954,1.6953,1.6957,1.7153,1.7171,1.6929,1.6929,1.693,1.693,1.693,1.693,1.6787,1.6722,1.6765,1.6711,1.6739,1.6709,1.6711,1.672,1.6736,1.6706,1.6696,1.673,1.6761,1.6759,1.675,1.6765,1.6757,1.671,1.6735,1.6915,1.6942,1.6968,1.6985,1.6709,1.6708,1.6541,1.6539,1.6538]}]]